This demonstration page uses our WeatherBlox Daily Observations layout. Learn more.

Left ArrowRight Arrow

41.86663, -103.66717

Hourly Observations for June 6, 2022

Temp ( °F °C ) Dew Point ( °F °C ) Humidity (%) Winds ( mph kmh ) Pressure ( in mb ) Visibility ( mi km ) Precip ( " mm )
12:53 am 00:53 Clear 57 13.9 54 12.2 90 90 N 5 7 29.68 1005 10 16 0.00 0.00
1:53 am 01:53 Clear 55 12.8 53 11.7 93 93 NW 3 6 29.67 1005 10 16 0.00 0.00
2:53 am 02:53 Clear 56 13.3 53 11.7 90 90 NE 7 11 29.68 1005 10 16 0.00 0.00
3:53 am 03:53 Clear 54 12.2 52 11.1 93 93 W 5 7 29.71 1006 10 16 0.00 0.00
4:53 am 04:53 Clear 52 11.1 51 10.6 97 97 NW 5 7 29.71 1006 8 13 0.00 0.00
5:53 am 05:53 Sunny 53 11.7 51 10.6 93 93 WNW 9 15 29.74 1007 7 11 0.00 0.00
6:53 am 06:53 Sunny 56 13.3 53 11.7 90 90 WNW 9 15 29.75 1007 10 16 0.00 0.00
7:53 am 07:53 Sunny 61 16.1 56 13.3 84 84 WNW 13 20 29.75 1007 10 16 0.00 0.00
8:53 am 08:53 Sunny 66 18.9 55 12.8 68 68 W 12 19 29.75 1007 10 16 0.00 0.00
9:53 am 09:53 Sunny 69 20.6 55 12.8 61 61 NW 10 17 29.75 1008 10 16 0.00 0.00
10:53 am 10:53 Sunny 74 23.3 53 11.7 48 48 WNW 10 17 29.74 1007 10 16 0.00 0.00
11:53 am 11:53 Sunny 76 24.4 50 10 40 40 WNW 6 9 29.74 1007 10 16 0.00 0.00
12:53 pm 12:53 Sunny 79 26.1 47 8.3 32 32 WNW 9 15 29.72 1006 10 16 0.00 0.00
1:53 pm 13:53 Sunny 81 27.2 46 7.8 29 29 W 10 17 29.70 1006 10 16 0.00 0.00
2:53 pm 14:53 Sunny 82 27.8 46 7.8 28 28 NW 7 11 29.67 1005 10 16 0.00 0.00
3:53 pm 15:53 Sunny 82 27.8 48 8.9 31 31 NW 3 6 29.66 1005 10 16 0.00 0.00
4:53 pm 16:53 Sunny 82 27.8 47 8.3 29 29 NNW 3 6 29.67 1005 10 16 0.00 0.00
5:53 pm 17:53 Sunny 80 26.7 47 8.3 31 31 NW 9 15 29.68 1005 10 16 0.00 0.00
6:53 pm 18:53 Sunny 80 26.7 45 7.2 29 29 W 6 9 29.68 1005 10 16 0.00 0.00
7:53 pm 19:53 Sunny 75 23.9 49 9.4 40 40 NNE 10 17 29.70 1006 10 16 0.00 0.00
8:53 pm 20:53 Clear 65 18.3 54 12.2 68 68 NE 24 39 29.76 1008 10 16 0.00 0.00
9:53 pm 21:53 Mostly Clear 62 16.7 54 12.2 75 75 ENE 15 24 29.82 1010 10 16 0.00 0.00
10:53 pm 22:53 Mostly Cloudy 61 16.1 55 12.8 81 81 ENE 7 11 29.83 1010 10 16 0.00 0.00
11:32 pm 23:32 Cloudy 62 16.7 56 13.3 80 80 ENE 10 17 29.82 1010 10 16 0.00 0.00
11:53 pm 23:53 Cloudy 61 16.1 55 12.8 81 81 ENE 10 17 29.85 1011 10 16 0.00 0.00

Powered by AerisWeather